Home   Weather   Chicago   Past weeks
Flag for USA

Past Weather in Chicago, Illinois, USA — Yesterday and Last 2 Weeks

Now
52 °F

High level clouds.


Feels Like: 52 °F
Forecast: 51 / 43 °F
Wind: 3 mph from South

Location: Chicago Midway Airport

Current Time: Apr 24, 2019 at 12:07:05 am

Latest Report: Apr 23, 2019 at 10:53 pm


Visibility: 10 mi

Pressure: 30.06 "Hg

Humidity: 64%

Dew Point: 40 °F

Location of ChicagoLocation

Past Weather in Chicago — Graph

°F

Chicago Temperature Yesterday

Maximum temperature yesterday: 66 °F (at 12:53 am)
Minimum temperature yesterday: 51 °F (at 7:53 am)
Average temperature yesterday: 57 °F

High & Low Weather Summary for the Past Weeks

 TemperatureHumidityPressure
High80 °F (Apr 22, 3:53 pm)97% (Apr 18, 11:39 am)30.14 "Hg (Apr 18, 11:39 am)
Low32 °F (Apr 15, 5:53 am)10% (Apr 20, 3:53 pm)29.49 "Hg (Apr 11, 8:37 pm)
Average51 °F62%29.85 "Hg
* Reported Apr 8 10:53 pm — Apr 23 10:53 pm, Chicago. Weather by CustomWeather, © 2019

Note: Actual official high and low records may vary slightly from our data, if they occured in-between our weather recording intervals... More about our weather records

Advertising

Chicago Weather History for the Previous 24 Hours

Scroll right to see more
 ConditionsComfort  
Time TempWeatherWind HumidityBarometerVisibility
10:53 pm
Tue, Apr 23
52 °FHigh level clouds.3 mph64%30.06 "Hg10 mi
9:53 pm53 °FPassing clouds.5 mph61%30.06 "Hg10 mi
8:53 pm53 °FPassing clouds.5 mph61%30.05 "Hg10 mi
7:53 pm53 °FPassing clouds.6 mph66%30.04 "Hg10 mi
6:53 pm54 °FPartly sunny.8 mph62%30.04 "Hg10 mi
5:53 pm56 °FPartly sunny.7 mph60%30.04 "Hg10 mi
4:53 pm56 °FPartly sunny.7 mph60%30.03 "Hg10 mi
3:53 pm57 °FPartly sunny.8 mph60%30.03 "Hg10 mi
2:53 pm55 °FPartly sunny.10 mph64%30.03 "Hg10 mi
1:53 pm58 °FPartly sunny.3 mph62%30.03 "Hg10 mi
12:53 pm58 °FPartly sunny.5 mph62%30.03 "Hg10 mi
11:53 am54 °FOvercast.6 mph69%30.03 "Hg10 mi
10:53 am52 °FOvercast.9 mph75%30.03 "Hg10 mi
9:53 am52 °FOvercast.8 mph75%30.00 "Hg10 mi
8:53 am51 °FOvercast.12 mph77%29.97 "Hg10 mi
7:53 am51 °FOvercast.9 mph83%29.96 "Hg10 mi
6:53 am53 °FMostly cloudy.13 mph80%29.93 "Hg8 mi
5:53 am55 °FMostly cloudy.12 mph90%29.88 "Hg7 mi
5:16 am58 °FDrizzle. Fog.13 mph90%29.87 "Hg6 mi
4:53 am59 °FOvercast.17 mph87%29.85 "Hg7 mi
3:53 am60 °FOvercast.15 mph90%29.82 "Hg7 mi
3:25 am62 °FMostly cloudy.17 mph86%29.83 "Hg7 mi
2:53 am63 °FPassing clouds.17 mph84%29.79 "Hg9 mi
2:23 am64 °FMostly cloudy.17 mph81%29.82 "Hg10 mi
1:53 am65 °FMostly cloudy.15 mph70%29.80 "Hg10 mi
12:53 am66 °FPassing clouds.14 mph65%29.80 "Hg10 mi
Weather by CustomWeather, © 2019

See weather overview